| time (UTC) | temp F | wind direction | speed knots | gust knots | rain 1hr in | rain 24hr in | rain mn in | humidity % | barometer mb |
| 20260504004517 | 52 | 0.0 | 0.0 | 0.00 | 0.00 | 0.00 | 48 | 1012.8 | |
| 20260504003516 | 53 | 0.0 | 0.0 | 0.00 | 0.00 | 0.00 | 46 | 1012.7 | |
| 20260504002537 | 54 | 0.0 | 0.0 | 0.00 | 0.00 | 0.00 | 44 | 1012.5 | |
| 20260504001517 | 55 | 0.0 | 0.0 | 0.00 | 0.00 | 0.00 | 42 | 1012.4 | |
| 20260504000516 | 56 | 0.0 | 0.9 | 0.00 | 0.00 | 0.00 | 40 | 1012.3 | |
| 20260503235517 | 57 | 0.0 | 0.0 | 0.00 | 0.00 | 0.00 | 39 | 1012.2 | |
| 20260503234517 | 58 | 0.0 | 0.0 | 0.00 | 0.00 | 0.00 | 37 | 1012.0 | |
| 20260503233517 | 59 | 248 | 0.9 | 1.7 | 0.00 | 0.00 | 0.00 | 36 | 1011.9 |
| 20260503232517 | 59 | 248 | 2.6 | 5.2 | 0.00 | 0.00 | 0.00 | 35 | 1011.9 |
| 20260503231517 | 60 | 270 | 1.7 | 3.5 | 0.00 | 0.00 | 0.00 | 34 | 1011.9 |
| 20260503230537 | 60 | 270 | 3.5 | 6.1 | 0.00 | 0.00 | 0.00 | 33 | 1011.9 |
| 20260503225517 | 60 | 203 | 1.7 | 4.3 | 0.00 | 0.00 | 0.00 | 34 | 1011.8 |
| 20260503224516 | 60 | 248 | 5.2 | 7.8 | 0.00 | 0.00 | 0.00 | 33 | 1011.7 |
| 20260503223516 | 60 | 270 | 0.9 | 1.7 | 0.00 | 0.00 | 0.00 | 34 | 1011.6 |
| 20260503222517 | 60 | 270 | 2.6 | 5.2 | 0.00 | 0.00 | 0.00 | 34 | 1011.6 |
| 20260503221517 | 60 | 225 | 3.5 | 5.2 | 0.00 | 0.00 | 0.00 | 34 | 1011.6 |
| 20260503220537 | 60 | 270 | 4.3 | 7.8 | 0.00 | 0.00 | 0.00 | 34 | 1011.7 |
| 20260503215537 | 61 | 248 | 2.6 | 5.2 | 0.00 | 0.00 | 0.00 | 34 | 1011.7 |
| 20260503214537 | 61 | 270 | 6.1 | 10.4 | 0.00 | 0.00 | 0.00 | 32 | 1011.5 |
| 20260503213516 | 61 | 248 | 5.2 | 6.1 | 0.00 | 0.00 | 0.00 | 32 | 1011.5 |
| 20260503212516 | 61 | 0.0 | 1.7 | 0.00 | 0.00 | 0.00 | 34 | 1011.5 | |
| 20260503211537 | 61 | 203 | 2.6 | 5.2 | 0.00 | 0.00 | 0.00 | 35 | 1011.6 |
| 20260503210516 | 61 | 248 | 5.2 | 11.3 | 0.00 | 0.00 | 0.00 | 34 | 1011.4 |
| 20260503205517 | 61 | 248 | 2.6 | 7.8 | 0.00 | 0.00 | 0.00 | 37 | 1011.5 |
| 20260503204516 | 61 | 248 | 4.3 | 11.3 | 0.00 | 0.00 | 0.00 | 35 | 1011.4 |
| 20260503203517 | 60 | 270 | 6.1 | 9.6 | 0.00 | 0.00 | 0.00 | 36 | 1011.3 |
| 20260503202537 | 60 | 225 | 2.6 | 5.2 | 0.00 | 0.00 | 0.00 | 36 | 1011.4 |
| 20260503201517 | 60 | 225 | 6.1 | 10.4 | 0.00 | 0.00 | 0.00 | 38 | 1011.4 |
| 20260503200537 | 60 | 315 | 2.6 | 6.1 | 0.00 | 0.00 | 0.00 | 37 | 1011.4 |
| 20260503195516 | 60 | 45 | 2.6 | 5.2 | 0.00 | 0.00 | 0.00 | 36 | 1011.7 |
| 20260503194517 | 59 | 225 | 2.6 | 5.2 | 0.00 | 0.00 | 0.00 | 41 | 1011.6 |
| 20260503193537 | 59 | 203 | 7.0 | 11.3 | 0.00 | 0.00 | 0.00 | 38 | 1011.7 |
| 20260503192537 | 59 | 270 | 4.3 | 7.8 | 0.00 | 0.00 | 0.00 | 40 | 1011.9 |
| 20260503191517 | 59 | 293 | 4.3 | 8.7 | 0.00 | 0.00 | 0.00 | 40 | 1012.0 |
| 20260503190517 | 58 | 203 | 0.9 | 3.5 | 0.00 | 0.00 | 0.00 | 48 | 1012.0 |
| 20260503185517 | 58 | 180 | 2.6 | 4.3 | 0.00 | 0.00 | 0.00 | 41 | 1012.1 |
| 20260503184517 | 58 | 315 | 2.6 | 6.1 | 0.00 | 0.00 | 0.00 | 41 | 1012.2 |
| 20260503183517 | 58 | 315 | 2.6 | 9.6 | 0.00 | 0.00 | 0.00 | 42 | 1012.3 |
| 20260503182517 | 57 | 338 | 2.6 | 4.3 | 0.00 | 0.00 | 0.00 | 46 | 1012.4 |
| 20260503181517 | 55 | 225 | 2.6 | 7.0 | 0.00 | 0.00 | 0.00 | 47 | 1012.5 |
| 20260503180517 | 56 | 270 | 5.2 | 9.6 | 0.00 | 0.00 | 0.00 | 44 | 1012.5 |
| 20260503175537 | 56 | 203 | 2.6 | 4.3 | 0.00 | 0.00 | 0.00 | 45 | 1012.6 |
| 20260503174517 | 55 | 248 | 6.1 | 8.7 | 0.00 | 0.00 | 0.00 | 44 | 1012.5 |
| 20260503173517 | 54 | 23 | 2.6 | 6.1 | 0.00 | 0.00 | 0.00 | 46 | 1012.7 |
| 20260503172517 | 55 | 0 | 1.7 | 4.3 | 0.00 | 0.00 | 0.00 | 46 | 1012.6 |
| 20260503171517 | 55 | 270 | 4.3 | 7.0 | 0.00 | 0.00 | 0.00 | 46 | 1012.6 |
| 20260503170517 | 54 | 293 | 3.5 | 8.7 | 0.00 | 0.00 | 0.00 | 46 | 1012.5 |
| 20260503150517 | 54 | 270 | 1.7 | 2.6 | 0.00 | 0.00 | 0.00 | 49 | 1013.0 |
| 20260503131117 | 49 | 270 | 2.6 | 6.1 | 0.00 | 0.00 | 0.00 | 61 | 1013.1 |
| 20260503130117 | 49 | 225 | 0.9 | 2.6 | 0.00 | 0.00 | 0.00 | 59 | 1013.0 |
| 20260503120117 | 47 | 293 | 1.7 | 2.6 | 0.00 | 0.00 | 0.00 | 61 | 1012.7 |
| 20260503110137 | 47 | 0.0 | 0.9 | 0.00 | 0.00 | 0.00 | 60 | 1012.1 | |
| 20260503100117 | 47 | 338 | 0.9 | 1.7 | 0.00 | 0.00 | 0.00 | 59 | 1011.1 |
| 20260503090117 | 46 | 0.0 | 0.0 | 0.00 | 0.00 | 0.00 | 59 | 1010.7 | |
| 20260503081117 | 49 | 0.0 | 0.9 | 0.00 | 0.00 | 0.00 | 53 | 1010.6 | |
| 20260503080117 | 49 | 0.0 | 1.7 | 0.00 | 0.00 | 0.00 | 52 | 1010.6 | |
| 20260503072137 | 49 | 0.0 | 0.9 | 0.00 | 0.00 | 0.00 | 52 | 1010.5 | |
| 20260503071117 | 50 | 0 | 0.9 | 1.7 | 0.00 | 0.00 | 0.00 | 52 | 1010.4 |
| 20260503070117 | 50 | 338 | 0.9 | 3.5 | 0.00 | 0.00 | 0.00 | 52 | 1010.5 |
| 20260503060117 | 51 | 338 | 0.9 | 2.6 | 0.00 | 0.00 | 0.00 | 50 | 1010.6 |
| 20260503055115 | 51 | 45 | 0.9 | 2.6 | 0.00 | 0.00 | 0.00 | 50 | 1010.9 |
| 20260503054115 | 51 | 0.0 | 1.7 | 0.00 | 0.00 | 0.00 | 51 | 1010.9 | |
| 20260503053115 | 51 | 0.0 | 1.7 | 0.00 | 0.00 | 0.00 | 52 | 1010.7 | |
| 20260503052135 | 52 | 0.0 | 0.9 | 0.00 | 0.00 | 0.00 | 52 | 1010.8 | |
| 20260503051115 | 52 | 0.0 | 0.9 | 0.00 | 0.00 | 0.00 | 51 | 1010.9 | |
| 20260503050155 | 51 | 0.0 | 0.9 | 0.00 | 0.00 | 0.00 | 53 | 1011.2 | |
| 20260503045115 | 51 | 0.0 | 0.0 | 0.00 | 0.00 | 0.00 | 54 | 1011.3 | |
| 20260503044135 | 51 | 0.0 | 2.6 | 0.00 | 0.00 | 0.00 | 55 | 1011.4 | |
| 20260503043115 | 51 | 0.0 | 0.0 | 0.00 | 0.00 | 0.00 | 56 | 1011.5 | |
| 20260503042115 | 52 | 0.0 | 0.0 | 0.00 | 0.00 | 0.00 | 55 | 1011.4 | |
| 20260503041135 | 52 | 0.0 | 0.0 | 0.00 | 0.00 | 0.00 | 55 | 1011.5 | |
| 20260503040135 | 52 | 0.0 | 0.9 | 0.00 | 0.00 | 0.00 | 55 | 1011.4 | |
| 20260503035116 | 52 | 0.0 | 0.0 | 0.00 | 0.00 | 0.00 | 55 | 1011.4 | |
| 20260503034116 | 52 | 0.0 | 0.0 | 0.00 | 0.00 | 0.00 | 55 | 1011.4 | |
| 20260503033136 | 53 | 0.0 | 0.0 | 0.00 | 0.00 | 0.00 | 54 | 1011.2 | |
| 20260503032116 | 53 | 0.0 | 0.9 | 0.00 | 0.00 | 0.00 | 54 | 1011.4 | |
| 20260503031116 | 53 | 0.0 | 0.0 | 0.00 | 0.00 | 0.00 | 56 | 1011.2 | |
| 20260503030116 | 53 | 0.0 | 0.0 | 0.00 | 0.00 | 0.00 | 54 | 1011.5 | |
| 20260503024116 | 53 | 0.0 | 0.0 | 0.00 | 0.00 | 0.00 | 54 | 1011.3 | |
| 20260503023116 | 53 | 0.0 | 0.0 | 0.00 | 0.00 | 0.00 | 54 | 1011.4 | |
| 20260503022116 | 53 | 0.0 | 0.9 | 0.00 | 0.00 | 0.00 | 54 | 1011.4 | |
| 20260503021156 | 53 | 0.0 | 0.0 | 0.00 | 0.00 | 0.00 | 53 | 1011.4 | |
| 20260503020116 | 53 | 0.0 | 0.0 | 0.00 | 0.00 | 0.00 | 52 | 1011.4 | |
| 20260503015116 | 53 | 0.0 | 0.0 | 0.00 | 0.00 | 0.00 | 53 | 1011.5 | |
| 20260503014116 | 53 | 0.0 | 0.0 | 0.00 | 0.00 | 0.00 | 53 | 1011.3 | |
| 20260503013116 | 53 | 0.0 | 0.0 | 0.00 | 0.00 | 0.00 | 52 | 1011.3 | |
| 20260503012136 | 54 | 0.0 | 0.0 | 0.00 | 0.00 | 0.00 | 52 | 1011.4 | |
| 20260503011116 | 54 | 0.0 | 0.0 | 0.00 | 0.00 | 0.00 | 52 | 1011.3 | |
| 20260503010136 | 54 | 0.0 | 0.9 | 0.00 | 0.00 | 0.00 | 51 | 1011.1 | |
| 20260503005116 | 54 | 0.0 | 0.9 | 0.00 | 0.00 | 0.00 | 52 | 1010.9 |